Location: Potomac
(46.8816°N, 113.5795°W)
Time: 21:04:49
(UTC+00:00)

XW-2A - Visible Passes

Search period start: 28 June 2022 00:00
Search period end: 08 July 2022 00:00
Orbit: 397 x 413 km, 97.2° (Epoch: 28 June)

Date Brightness Start Highest point End Pass type
(mag) Time Alt. Az. Time Alt. Az. Time Alt. Az.
28 Jun ? 05:01:03 10° SSW 05:03:48 28° W 05:06:34 10° NW visible
29 Jun ? 04:12:07 10° SSE 04:15:09 54° ENE 04:18:12 10° N visible
30 Jun ? 04:55:32 10° SSW 04:58:23 33° W 05:01:16 10° NNW visible
02 Jul ? 04:49:54 10° S 04:52:50 40° W 04:55:48 10° NNW visible
03 Jul ? 05:35:01 10° WSW 05:36:12 12° W 05:37:22 10° WNW visible
04 Jul ? 04:44:08 10° S 04:47:09 49° W 04:50:11 10° NNW visible
05 Jul ? 05:28:43 10° SW 05:30:24 14° W 05:32:05 10° WNW visible
06 Jul ? 04:38:16 10° S 04:41:19 61° W 04:44:24 10° NNW visible
07 Jul ? 05:22:26 10° SW 05:24:28 16° W 05:26:30 10° NW visible
